Find Starlink 4707

NORAD ID: 53721 Int'l Des: 2022-107 Owner: SPXS Country: US Constellation: starlink operational
LEOCIRCULAR

实时位置

正在加载3D地球...

关于 Starlink 4707

正在加载描述...

即将过境

Passes for default location (London). Set your location on the main map for personalized predictions.

高度历史

Loading altitude history...

两行轨道根数

1 53721U 22107X 26125.64110704 .00001105 00000-0 87465-4 0 9990
2 53721 53.2179 358.2932 0001423 78.3904 281.7248 15.08846369203018
Epoch: May 5, 2026 • Age: 13 hours

当前状态

高度 541.7 km
速度 7.60 km/s
星下点 34.88°N, 149.96°W
发射日期 Sep 5, 2022
运行时间 3.6 years
类型 internet

技术详情

分类 Payload
质量 305.00 kg
干质量 290.00 kg
总质量 305.00 kg
长度 0.20 m
直径 2.80 m
跨度 9.00 m
形状 Box + pan
制造商 SPXS
平台类型 Starlink
阶段状态 In Orbit
所有者/国家 SPXS/US

Most Searched